Weather History for CWSA - November, 2012

Change the Weather History Date:

Tuesday, November 13, 2012

  Actual Average Record
Temperature  
Mean Temperature 56 °F -  
Max Temperature 58 °F 46 °F 58 °F (2012)
Min Temperature 53 °F 38 °F 28 °F (1996)
Degree Days  
Heating Degree Days 10    
Growing Degree Days 6 (Base 50)    
Moisture  
Dew Point 53 °F    
Average Humidity 87    
Maximum Humidity 94    
Minimum Humidity 76    
Precipitation  
Precipitation 0.00 in - - ()
Sea Level Pressure  
Sea Level Pressure 30.46 in    
Wind  
Wind Speed 13 mph ()    
Max Wind Speed 17 mph    
Max Gust Speed 22 mph    
Visibility 7.7 miles    
Events      
Averages and records for this station are not official NWS values.
T = Trace of Precipitation, MM = Missing Value Source: Averaged Metar Reports

Daily Weather History Graph

Daily Weather History Graph

Search for Another Location

Airport or City:

Trip Planner

Search our weather history database for the weather conditions in past years. The results will help you decide how hot, cold, wet, or windy it might be!

Date:

Astronomy

Nov. 13, 2012 Rise Set
Actual Time 6:52 AM AST 4:35 PM AST
Civil Twilight 6:21 AM AST 5:06 PM AST
Nautical Twilight 5:46 AM AST 5:41 PM AST
Astronomical Twilight 5:12 AM AST 6:15 PM AST
Moon 6:25 AM AST (11/13) 4:23 PM AST (11/13)
Length of Visible Light 10h 44m
Length of Day
9h 42m
Waning Crescent, 0% of the Moon is Illuminated
Nov 13
Waning Crescent
Nov 13
New
Nov 20
First Quarter
Nov 28
Full
Dec 6
Last Quarter

Hourly Weather History & Observations

Time (AST) Temp. Dew Point Humidity Pressure Visibility Wind Dir Wind Speed Gust Speed Precip Events Conditions
12:00 AM 53.6 °F 51.8 °F 94% 30.54 in 6.0 mi SSW 13.8 mph - N/A   Clear
1:00 AM 53.6 °F 51.8 °F 94% 30.53 in 7.0 mi SSW 13.8 mph - N/A   Clear
2:00 AM 54 °F 52 °F 90% 30.53 in 7 mi SSW 13.8 mph - -  
2:00 AM 53.6 °F 51.8 °F 94% 30.53 in 7.0 mi SSW 13.8 mph - N/A   Clear
3:00 AM 55.4 °F 51.8 °F 88% 30.52 in 8.0 mi SSW 15.0 mph - N/A   Clear
4:00 AM 53.6 °F 51.8 °F 94% 30.51 in 9.0 mi South 15.0 mph - N/A   Clear
5:00 AM 55 °F 52 °F 88% 30.51 in 7 mi South 17.3 mph - -  
5:00 AM 55.4 °F 51.8 °F 88% 30.51 in 8.0 mi South 17.3 mph - N/A   Clear
6:00 AM 55.4 °F 51.8 °F 88% 30.51 in 8.0 mi SSW 16.1 mph - N/A   Clear
7:00 AM 55.4 °F 51.8 °F 88% 30.50 in 9.0 mi SSW 13.8 mph - N/A   Clear
8:00 AM 55 °F 52 °F 84% 30.51 in 9 mi SSW 13.8 mph - -  
8:00 AM 55.4 °F 51.8 °F 88% 30.51 in 9.0 mi SSW 13.8 mph - N/A   Clear
9:00 AM 55.4 °F 51.8 °F 88% 30.50 in 9.0 mi South 12.7 mph - N/A   Clear
10:00 AM 57.2 °F 51.8 °F 82% 30.50 in 9.0 mi South 12.7 mph - N/A   Clear
11:00 AM 58 °F 53 °F 76% 30.48 in 9 mi South 13.8 mph - -  
11:00 AM 57.2 °F 51.8 °F 82% 30.48 in 9.0 mi South 15.0 mph - N/A   Clear
12:00 PM 59.0 °F 53.6 °F 82% 30.45 in 9.0 mi South 15.0 mph - N/A   Clear
1:00 PM 59.0 °F 51.8 °F 77% 30.43 in 9.0 mi South 12.7 mph - N/A   Clear
2:00 PM 58 °F 53 °F 79% 30.42 in 9 mi South 12.7 mph - -  
2:00 PM 59.0 °F 53.6 °F 82% 30.42 in 9.0 mi South 15.0 mph - N/A   Clear
3:00 PM 57.2 °F 53.6 °F 88% 30.40 in 8.0 mi South 15.0 mph - N/A   Clear
4:00 PM 57.2 °F 53.6 °F 88% 30.40 in 8.0 mi South 17.3 mph - N/A   Partly Cloudy
5:00 PM 57 °F 53 °F 83% 30.41 in 9 mi South 16.1 mph - -  
5:00 PM 57.2 °F 53.6 °F 88% 30.41 in 9.0 mi South 15.0 mph 20.7 mph N/A   Clear
6:00 PM 57.2 °F 53.6 °F 88% 30.41 in 8.0 mi South 16.1 mph - N/A   Clear
7:00 PM 57.2 °F 53.6 °F 88% 30.40 in 6.0 mi South 15.0 mph 21.9 mph N/A   Scattered Clouds
8:00 PM 56 °F 54 °F 90% 30.40 in 5 mi South 15.0 mph - -  
8:00 PM 57.2 °F 53.6 °F 88% 30.40 in 5.0 mi South 16.1 mph - N/A   Partly Cloudy
9:00 PM 55.4 °F 53.6 °F 94% 30.39 in 5.0 mi South 15.0 mph - N/A   Partly Cloudy
10:00 PM 57.2 °F 53.6 °F 88% 30.38 in 5.0 mi South 17.3 mph - N/A   Overcast
11:00 PM 56 °F 54 °F 90% 30.37 in 6 mi South 15.0 mph - -   Overcast
11:00 PM 57.2 °F 53.6 °F 88% 30.37 in 6.0 mi South 15.0 mph 20.7 mph N/A   Overcast